| time (UTC) | temp F | wind direction | speed MPH | gust MPH | rain 1hr in | rain 24hr in | rain mn in | humidity % | barometer mb |
| 20260509130607 | 75 | 127 | 2.0 | 3.0 | 0.00 | 0.00 | 0.00 | 44 | 1016.9 |
| 20260509125604 | 75 | 21 | 2.0 | 3.0 | 0.00 | 0.00 | 0.00 | 45 | 1017.0 |
| 20260509125107 | 75 | 238 | 2.0 | 5.0 | 0.00 | 0.00 | 0.00 | 45 | 1017.1 |
| 20260509124604 | 75 | 123 | 2.0 | 5.0 | 0.00 | 0.00 | 0.00 | 46 | 1017.1 |
| 20260509124105 | 75 | 128 | 2.0 | 5.0 | 0.00 | 0.00 | 0.00 | 43 | 1017.2 |
| 20260509123619 | 75 | 42 | 2.0 | 5.0 | 0.00 | 0.00 | 0.00 | 45 | 1017.3 |
| 20260509123104 | 75 | 153 | 2.0 | 5.0 | 0.00 | 0.00 | 0.00 | 44 | 1017.3 |
| 20260509122606 | 75 | 16 | 2.0 | 6.0 | 0.00 | 0.00 | 0.00 | 47 | 1017.2 |
| 20260509122107 | 75 | 327 | 2.0 | 5.0 | 0.00 | 0.00 | 0.00 | 49 | 1017.2 |
| 20260509121605 | 74 | 36 | 2.0 | 5.0 | 0.00 | 0.00 | 0.00 | 48 | 1017.2 |
| 20260509120604 | 74 | 122 | 2.0 | 5.0 | 0.00 | 0.00 | 0.00 | 49 | 1017.4 |
| 20260509120104 | 74 | 142 | 2.0 | 5.0 | 0.00 | 0.00 | 0.00 | 49 | 1017.4 |
| 20260509115107 | 74 | 349 | 2.0 | 7.0 | 0.00 | 0.00 | 0.00 | 52 | 1017.6 |
| 20260509114607 | 74 | 352 | 2.0 | 5.0 | 0.00 | 0.00 | 0.00 | 52 | 1017.6 |
| 20260509114104 | 74 | 312 | 2.0 | 5.0 | 0.00 | 0.00 | 0.00 | 53 | 1017.7 |
| 20260509113605 | 73 | 22 | 2.0 | 5.0 | 0.00 | 0.00 | 0.00 | 53 | 1017.7 |
| 20260509113104 | 73 | 101 | 2.0 | 6.0 | 0.00 | 0.00 | 0.00 | 52 | 1017.7 |
| 20260509112604 | 73 | 69 | 2.0 | 5.0 | 0.00 | 0.00 | 0.00 | 52 | 1017.8 |
| 20260509112104 | 73 | 19 | 2.0 | 5.0 | 0.00 | 0.00 | 0.00 | 53 | 1017.8 |
| 20260509111604 | 73 | 40 | 2.0 | 5.0 | 0.00 | 0.00 | 0.00 | 54 | 1017.8 |
| 20260509111106 | 73 | 70 | 2.0 | 5.0 | 0.00 | 0.00 | 0.00 | 55 | 1017.9 |
| 20260509110603 | 73 | 90 | 2.0 | 5.0 | 0.00 | 0.00 | 0.00 | 56 | 1018.0 |
| 20260509105604 | 72 | 88 | 2.0 | 6.0 | 0.00 | 0.00 | 0.00 | 55 | 1018.1 |
| 20260509105104 | 72 | 352 | 2.0 | 6.0 | 0.00 | 0.00 | 0.00 | 58 | 1018.1 |
| 20260509104607 | 72 | 137 | 2.0 | 6.0 | 0.00 | 0.00 | 0.00 | 56 | 1018.1 |
| 20260509104108 | 72 | 307 | 2.0 | 5.0 | 0.00 | 0.00 | 0.00 | 56 | 1018.1 |
| 20260509103604 | 72 | 32 | 2.0 | 8.0 | 0.00 | 0.00 | 0.00 | 59 | 1018.1 |
| 20260509103105 | 72 | 305 | 2.0 | 8.0 | 0.00 | 0.00 | 0.00 | 57 | 1018.1 |
| 20260509102611 | 72 | 342 | 2.0 | 6.0 | 0.00 | 0.00 | 0.00 | 59 | 1018.2 |
| 20260509102104 | 71 | 76 | 2.0 | 6.0 | 0.00 | 0.00 | 0.00 | 60 | 1018.3 |
| 20260509100604 | 71 | 358 | 2.0 | 6.0 | 0.00 | 0.00 | 0.00 | 59 | 1018.4 |
| 20260509100104 | 71 | 337 | 2.0 | 6.0 | 0.00 | 0.00 | 0.00 | 60 | 1018.4 |
| 20260509095604 | 70 | 2 | 2.0 | 6.0 | 0.00 | 0.00 | 0.00 | 60 | 1018.5 |
| 20260509094619 | 70 | 283 | 2.0 | 5.0 | 0.00 | 0.00 | 0.00 | 61 | 1018.6 |
| 20260509094104 | 70 | 50 | 2.0 | 3.0 | 0.00 | 0.00 | 0.00 | 62 | 1018.7 |
| 20260509093604 | 69 | 156 | 2.0 | 3.0 | 0.00 | 0.00 | 0.00 | 62 | 1018.7 |
| 20260509092605 | 69 | 339 | 2.0 | 5.0 | 0.00 | 0.00 | 0.00 | 64 | 1018.8 |
| 20260509092105 | 69 | 340 | 2.0 | 3.0 | 0.00 | 0.00 | 0.00 | 64 | 1018.9 |
| 20260509091605 | 69 | 315 | 2.0 | 5.0 | 0.00 | 0.00 | 0.00 | 63 | 1018.9 |
| 20260509091104 | 69 | 347 | 2.0 | 6.0 | 0.00 | 0.00 | 0.00 | 64 | 1018.9 |
| 20260509090605 | 68 | 342 | 2.0 | 5.0 | 0.00 | 0.00 | 0.00 | 68 | 1018.9 |
| 20260509090104 | 68 | 25 | 2.0 | 3.0 | 0.00 | 0.00 | 0.00 | 70 | 1018.9 |
| 20260509085604 | 67 | 175 | 2.0 | 6.0 | 0.00 | 0.00 | 0.00 | 69 | 1019.0 |
| 20260509084604 | 67 | 301 | 2.0 | 6.0 | 0.00 | 0.00 | 0.00 | 66 | 1019.0 |
| 20260509084104 | 66 | 341 | 2.0 | 3.0 | 0.00 | 0.00 | 0.00 | 70 | 1019.1 |
| 20260509083604 | 66 | 352 | 2.0 | 5.0 | 0.00 | 0.00 | 0.00 | 71 | 1019.1 |
| 20260509083104 | 66 | 332 | 2.0 | 3.0 | 0.00 | 0.00 | 0.00 | 72 | 1019.1 |
| 20260509082605 | 65 | 265 | 2.0 | 3.0 | 0.00 | 0.00 | 0.00 | 73 | 1019.1 |
| 20260509082104 | 65 | 310 | 2.0 | 6.0 | 0.00 | 0.00 | 0.00 | 72 | 1019.1 |
| 20260509081605 | 65 | 306 | 2.0 | 6.0 | 0.00 | 0.00 | 0.00 | 71 | 1019.1 |
| 20260509080104 | 64 | 312 | 2.0 | 3.0 | 0.00 | 0.00 | 0.00 | 72 | 1019.2 |
| 20260509075604 | 64 | 311 | 2.0 | 5.0 | 0.00 | 0.00 | 0.00 | 72 | 1019.2 |
| 20260509075104 | 64 | 312 | 2.0 | 3.0 | 0.00 | 0.00 | 0.00 | 73 | 1019.2 |
| 20260509074605 | 64 | 305 | 2.0 | 5.0 | 0.00 | 0.00 | 0.00 | 72 | 1019.2 |
| 20260509074105 | 64 | 203 | 2.0 | 2.0 | 0.00 | 0.00 | 0.00 | 74 | 1019.2 |
| 20260509073604 | 63 | 238 | 2.0 | 5.0 | 0.00 | 0.00 | 0.00 | 75 | 1019.2 |
| 20260509073104 | 63 | 288 | 2.0 | 5.0 | 0.00 | 0.00 | 0.00 | 77 | 1019.2 |
| 20260509072605 | 62 | 321 | 2.0 | 3.0 | 0.00 | 0.00 | 0.00 | 76 | 1019.2 |
| 20260509072104 | 62 | 312 | 1.0 | 5.0 | 0.00 | 0.00 | 0.00 | 76 | 1019.2 |
| 20260509071607 | 63 | 320 | 1.0 | 5.0 | 0.00 | 0.00 | 0.00 | 76 | 1019.2 |
| 20260509070609 | 62 | 313 | 2.0 | 3.0 | 0.00 | 0.00 | 0.00 | 77 | 1019.0 |
| 20260509065604 | 62 | 317 | 2.0 | 2.0 | 0.00 | 0.00 | 0.00 | 79 | 1019.1 |
| 20260509064604 | 61 | 322 | 1.0 | 3.0 | 0.00 | 0.00 | 0.00 | 80 | 1019.2 |
| 20260509064106 | 61 | 305 | 1.0 | 3.0 | 0.00 | 0.00 | 0.00 | 81 | 1019.3 |
| 20260509063604 | 60 | 153 | 1.0 | 2.0 | 0.00 | 0.00 | 0.00 | 82 | 1019.3 |
| 20260509062604 | 59 | 159 | 2.0 | 5.0 | 0.00 | 0.00 | 0.00 | 87 | 1019.2 |
| 20260509061604 | 57 | 119 | 2.0 | 3.0 | 0.00 | 0.00 | 0.00 | 91 | 1019.2 |
| 20260509061104 | 57 | 119 | 2.0 | 3.0 | 0.00 | 0.00 | 0.00 | 92 | 1019.1 |
| 20260509060605 | 56 | 132 | 2.0 | 3.0 | 0.00 | 0.00 | 0.00 | 94 | 1019.1 |
| 20260509060104 | 55 | 153 | 2.0 | 3.0 | 0.00 | 0.00 | 0.00 | 95 | 1019.1 |
| 20260509055606 | 54 | 168 | 2.0 | 3.0 | 0.00 | 0.00 | 0.00 | 96 | 1019.0 |
| 20260509055104 | 54 | 165 | 2.0 | 3.0 | 0.00 | 0.00 | 0.00 | 96 | 1019.0 |
| 20260509054604 | 53 | 149 | 2.0 | 3.0 | 0.00 | 0.00 | 0.00 | 96 | 1019.0 |
| 20260509054104 | 53 | 160 | 2.0 | 2.0 | 0.00 | 0.00 | 0.00 | 97 | 1019.0 |
| 20260509053604 | 52 | 134 | 2.0 | 3.0 | 0.00 | 0.00 | 0.00 | 97 | 1019.0 |
| 20260509053104 | 52 | 128 | 2.0 | 5.0 | 0.00 | 0.00 | 0.00 | 97 | 1019.0 |
| 20260509052105 | 51 | 150 | 2.0 | 3.0 | 0.00 | 0.00 | 0.00 | 97 | 1018.9 |
| 20260509051606 | 51 | 146 | 2.0 | 2.0 | 0.00 | 0.00 | 0.00 | 97 | 1018.9 |
| 20260509050604 | 50 | 141 | 2.0 | 2.0 | 0.00 | 0.00 | 0.00 | 97 | 1018.6 |
| 20260509050104 | 50 | 140 | 1.0 | 2.0 | 0.00 | 0.00 | 0.00 | 97 | 1018.6 |
| 20260509045604 | 50 | 140 | 0.0 | 2.0 | 0.00 | 0.00 | 0.00 | 96 | 1018.7 |
| 20260509045104 | 50 | 140 | 1.0 | 2.0 | 0.00 | 0.00 | 0.00 | 97 | 1018.7 |
| 20260509044619 | 49 | 140 | 1.0 | 1.0 | 0.00 | 0.00 | 0.00 | 97 | 1018.7 |
| 20260509044104 | 49 | 141 | 1.0 | 2.0 | 0.00 | 0.00 | 0.00 | 96 | 1018.6 |
| 20260509043604 | 49 | 141 | 0.0 | 3.0 | 0.00 | 0.00 | 0.00 | 96 | 1018.5 |
| 20260509043105 | 49 | 141 | 0.0 | 2.0 | 0.00 | 0.00 | 0.00 | 96 | 1018.5 |
| 20260509042604 | 49 | 141 | 0.0 | 2.0 | 0.00 | 0.00 | 0.00 | 96 | 1018.6 |
| 20260509041604 | 49 | 140 | 0.0 | 2.0 | 0.00 | 0.00 | 0.00 | 96 | 1018.6 |
| 20260509041104 | 49 | 141 | 0.0 | 0.0 | 0.00 | 0.00 | 0.00 | 95 | 1018.5 |
| 20260509040604 | 50 | 141 | 0.0 | 0.0 | 0.00 | 0.00 | 0.00 | 95 | 1018.4 |
| 20260509040105 | 50 | 140 | 0.0 | 0.0 | 0.00 | 0.00 | 0.00 | 95 | 1018.4 |
| 20260509035605 | 50 | 141 | 0.0 | 0.0 | 0.00 | 0.00 | 0.00 | 95 | 1018.5 |
| 20260509035105 | 50 | 141 | 0.0 | 0.0 | 0.00 | 0.00 | 0.00 | 95 | 1018.5 |
| 20260509034604 | 50 | 140 | 0.0 | 0.0 | 0.00 | 0.00 | 0.00 | 95 | 1018.5 |
| 20260509034104 | 50 | 141 | 0.0 | 0.0 | 0.00 | 0.00 | 0.00 | 95 | 1018.3 |
| 20260509033604 | 50 | 141 | 0.0 | 2.0 | 0.00 | 0.00 | 0.00 | 95 | 1018.2 |
| 20260509033104 | 50 | 141 | 0.0 | 2.0 | 0.00 | 0.00 | 0.00 | 95 | 1018.2 |
| 20260509032105 | 50 | 141 | 0.0 | 0.0 | 0.00 | 0.00 | 0.00 | 95 | 1018.2 |
| 20260509031604 | 50 | 141 | 0.0 | 0.0 | 0.00 | 0.00 | 0.00 | 95 | 1018.2 |
| 20260509031104 | 50 | 141 | 0.0 | 0.0 | 0.00 | 0.00 | 0.00 | 95 | 1018.3 |
| 20260509030604 | 50 | 141 | 0.0 | 0.0 | 0.00 | 0.00 | 0.00 | 95 | 1018.3 |
| 20260509030106 | 51 | 141 | 0.0 | 0.0 | 0.00 | 0.00 | 0.00 | 95 | 1018.3 |
| 20260509025605 | 51 | 141 | 0.0 | 0.0 | 0.00 | 0.00 | 0.00 | 95 | 1018.3 |
| 20260509025104 | 51 | 141 | 0.0 | 0.0 | 0.00 | 0.00 | 0.00 | 95 | 1018.3 |
| 20260509024607 | 51 | 141 | 0.0 | 0.0 | 0.00 | 0.00 | 0.00 | 95 | 1018.3 |
| 20260509024104 | 51 | 141 | 0.0 | 0.0 | 0.00 | 0.00 | 0.00 | 95 | 1018.3 |
| 20260509023611 | 51 | 141 | 0.0 | 0.0 | 0.00 | 0.00 | 0.00 | 95 | 1018.3 |
| 20260509023109 | 51 | 141 | 0.0 | 0.0 | 0.00 | 0.00 | 0.00 | 94 | 1018.3 |
| 20260509022104 | 51 | 141 | 0.0 | 0.0 | 0.00 | 0.00 | 0.00 | 95 | 1018.2 |
| 20260509021604 | 51 | 140 | 0.0 | 0.0 | 0.00 | 0.00 | 0.00 | 95 | 1018.2 |
| 20260509021104 | 51 | 140 | 0.0 | 0.0 | 0.00 | 0.00 | 0.00 | 94 | 1018.2 |
| 20260509020604 | 51 | 140 | 0.0 | 0.0 | 0.00 | 0.00 | 0.00 | 94 | 1018.2 |
| 20260509020104 | 52 | 140 | 0.0 | 0.0 | 0.00 | 0.00 | 0.00 | 94 | 1018.2 |
| 20260509015604 | 52 | 140 | 0.0 | 0.0 | 0.00 | 0.00 | 0.00 | 94 | 1018.2 |
| 20260509014604 | 52 | 141 | 0.0 | 0.0 | 0.00 | 0.00 | 0.00 | 94 | 1018.2 |
| 20260509014104 | 52 | 141 | 0.0 | 0.0 | 0.00 | 0.00 | 0.00 | 95 | 1018.1 |
| 20260509013604 | 52 | 141 | 0.0 | 0.0 | 0.00 | 0.00 | 0.00 | 95 | 1018.1 |
| 20260509013103 | 52 | 141 | 0.0 | 0.0 | 0.00 | 0.00 | 0.00 | 95 | 1018.1 |
| 20260509012104 | 52 | 141 | 0.0 | 0.0 | 0.00 | 0.00 | 0.00 | 94 | 1018.0 |
| 20260509011604 | 52 | 141 | 0.0 | 0.0 | 0.00 | 0.00 | 0.00 | 94 | 1018.0 |
| 20260509011104 | 52 | 141 | 0.0 | 0.0 | 0.00 | 0.00 | 0.00 | 94 | 1018.1 |
| 20260509010604 | 52 | 141 | 0.0 | 0.0 | 0.00 | 0.00 | 0.00 | 94 | 1018.2 |
| 20260509005611 | 52 | 141 | 0.0 | 0.0 | 0.00 | 0.00 | 0.00 | 94 | 1018.3 |
| 20260509004604 | 52 | 141 | 0.0 | 0.0 | 0.00 | 0.00 | 0.00 | 94 | 1018.4 |
| 20260509004104 | 52 | 141 | 1.0 | 0.0 | 0.00 | 0.00 | 0.00 | 94 | 1018.3 |
| 20260509003604 | 52 | 141 | 1.0 | 2.0 | 0.00 | 0.00 | 0.00 | 94 | 1018.3 |
| 20260509003104 | 52 | 141 | 1.0 | 2.0 | 0.00 | 0.00 | 0.00 | 94 | 1018.3 |
| 20260509002104 | 53 | 141 | 2.0 | 2.0 | 0.00 | 0.00 | 0.00 | 93 | 1018.2 |
| 20260509001104 | 53 | 148 | 2.0 | 3.0 | 0.00 | 0.00 | 0.00 | 93 | 1018.2 |
| 20260509000605 | 53 | 148 | 2.0 | 2.0 | 0.00 | 0.00 | 0.00 | 93 | 1018.2 |
| 20260508235604 | 53 | 148 | 1.0 | 3.0 | 0.00 | 0.00 | 0.00 | 93 | 1018.3 |
| 20260508233605 | 53 | 148 | 2.0 | 2.0 | 0.00 | 0.00 | 0.00 | 93 | 1018.2 |
| 20260508233104 | 53 | 148 | 1.0 | 2.0 | 0.00 | 0.00 | 0.00 | 93 | 1018.2 |
| 20260508232607 | 53 | 148 | 0.0 | 3.0 | 0.00 | 0.00 | 0.00 | 93 | 1018.2 |
| 20260508232104 | 53 | 148 | 1.0 | 2.0 | 0.00 | 0.00 | 0.00 | 93 | 1018.2 |
| 20260508231604 | 53 | 148 | 1.0 | 0.0 | 0.00 | 0.00 | 0.00 | 93 | 1018.2 |
| 20260508230606 | 53 | 148 | 1.0 | 2.0 | 0.00 | 0.00 | 0.00 | 93 | 1018.2 |
| 20260508230104 | 53 | 148 | 1.0 | 2.0 | 0.00 | 0.00 | 0.00 | 93 | 1018.2 |
| 20260508225604 | 53 | 148 | 1.0 | 3.0 | 0.00 | 0.00 | 0.00 | 93 | 1018.1 |
| 20260508225104 | 53 | 148 | 2.0 | 2.0 | 0.00 | 0.00 | 0.00 | 93 | 1018.1 |
| 20260508224605 | 54 | 148 | 2.0 | 2.0 | 0.00 | 0.00 | 0.00 | 93 | 1018.1 |
| 20260508224119 | 54 | 148 | 2.0 | 2.0 | 0.00 | 0.00 | 0.00 | 93 | 1018.0 |
| 20260508223605 | 54 | 148 | 2.0 | 2.0 | 0.00 | 0.00 | 0.00 | 93 | 1018.0 |
| 20260508223104 | 54 | 148 | 2.0 | 2.0 | 0.00 | 0.00 | 0.00 | 93 | 1018.0 |
| 20260508222606 | 54 | 148 | 2.0 | 2.0 | 0.00 | 0.00 | 0.00 | 93 | 1018.0 |
| 20260508222104 | 54 | 148 | 1.0 | 3.0 | 0.00 | 0.00 | 0.00 | 93 | 1018.0 |
| 20260508221604 | 54 | 148 | 1.0 | 2.0 | 0.00 | 0.00 | 0.00 | 92 | 1018.0 |
| 20260508221104 | 54 | 149 | 2.0 | 2.0 | 0.00 | 0.00 | 0.00 | 92 | 1018.0 |
| 20260508215605 | 55 | 147 | 1.0 | 3.0 | 0.00 | 0.00 | 0.00 | 92 | 1017.9 |
| 20260508214610 | 55 | 147 | 2.0 | 3.0 | 0.00 | 0.00 | 0.00 | 91 | 1017.9 |
| 20260508213604 | 55 | 147 | 1.0 | 2.0 | 0.00 | 0.00 | 0.00 | 91 | 1017.8 |
| 20260508213105 | 55 | 147 | 1.0 | 5.0 | 0.00 | 0.00 | 0.00 | 91 | 1017.8 |
| 20260508212604 | 56 | 121 | 1.0 | 2.0 | 0.00 | 0.00 | 0.00 | 91 | 1017.8 |
| 20260508212104 | 56 | 121 | 1.0 | 2.0 | 0.00 | 0.00 | 0.00 | 91 | 1017.8 |
| 20260508211603 | 56 | 114 | 0.0 | 2.0 | 0.00 | 0.00 | 0.00 | 91 | 1017.8 |
| 20260508211104 | 56 | 105 | 0.0 | 2.0 | 0.00 | 0.00 | 0.00 | 91 | 1017.7 |
| 20260508210605 | 56 | 105 | 0.0 | 2.0 | 0.00 | 0.00 | 0.00 | 90 | 1017.6 |
| 20260508210105 | 56 | 105 | 0.0 | 0.0 | 0.00 | 0.00 | 0.00 | 90 | 1017.6 |
| 20260508205606 | 56 | 105 | 0.0 | 0.0 | 0.00 | 0.00 | 0.00 | 90 | 1017.5 |
| 20260508205104 | 57 | 105 | 1.0 | 0.0 | 0.00 | 0.00 | 0.00 | 89 | 1017.5 |
| 20260508204609 | 57 | 105 | 1.0 | 2.0 | 0.00 | 0.00 | 0.00 | 89 | 1017.5 |
| 20260508204104 | 57 | 105 | 1.0 | 2.0 | 0.00 | 0.00 | 0.00 | 88 | 1017.6 |
| 20260508203604 | 57 | 105 | 0.0 | 2.0 | 0.00 | 0.00 | 0.00 | 87 | 1017.6 |
| 20260508203105 | 58 | 105 | 0.0 | 3.0 | 0.00 | 0.00 | 0.00 | 86 | 1017.6 |
| 20260508202604 | 58 | 335 | 0.0 | 0.0 | 0.00 | 0.00 | 0.00 | 87 | 1017.6 |
| 20260508202104 | 58 | 335 | 0.0 | 0.0 | 0.00 | 0.00 | 0.00 | 86 | 1017.6 |
| 20260508201604 | 58 | 335 | 0.0 | 0.0 | 0.00 | 0.00 | 0.00 | 86 | 1017.6 |
| 20260508201104 | 59 | 335 | 0.0 | 0.0 | 0.00 | 0.00 | 0.00 | 86 | 1017.5 |
| 20260508200604 | 59 | 335 | 0.0 | 0.0 | 0.00 | 0.00 | 0.00 | 85 | 1017.5 |
| 20260508200105 | 59 | 335 | 0.0 | 1.0 | 0.00 | 0.00 | 0.00 | 85 | 1017.5 |
| 20260508195104 | 60 | 335 | 0.0 | 2.0 | 0.00 | 0.00 | 0.00 | 84 | 1017.3 |
| 20260508194604 | 60 | 335 | 0.0 | 0.0 | 0.00 | 0.00 | 0.00 | 83 | 1017.3 |
| 20260508194104 | 60 | 335 | 0.0 | 2.0 | 0.00 | 0.00 | 0.00 | 83 | 1017.2 |
| 20260508193111 | 61 | 335 | 0.0 | 0.0 | 0.00 | 0.00 | 0.00 | 80 | 1017.1 |
| 20260508192604 | 61 | 335 | 0.0 | 2.0 | 0.00 | 0.00 | 0.00 | 80 | 1016.9 |
| 20260508192107 | 62 | 335 | 0.0 | 0.0 | 0.00 | 0.00 | 0.00 | 79 | 1016.8 |
| 20260508191604 | 62 | 335 | 0.0 | 0.0 | 0.00 | 0.00 | 0.00 | 78 | 1016.8 |
| 20260508191104 | 62 | 335 | 0.0 | 0.0 | 0.00 | 0.00 | 0.00 | 78 | 1016.7 |
| 20260508185605 | 63 | 335 | 0.0 | 2.0 | 0.00 | 0.00 | 0.00 | 76 | 1016.6 |
| 20260508185104 | 63 | 335 | 0.0 | 2.0 | 0.00 | 0.00 | 0.00 | 75 | 1016.6 |
| 20260508184604 | 64 | 335 | 0.0 | 2.0 | 0.00 | 0.00 | 0.00 | 75 | 1016.6 |
| 20260508183604 | 65 | 335 | 1.0 | 1.0 | 0.00 | 0.00 | 0.00 | 70 | 1016.3 |
| 20260508183104 | 65 | 335 | 1.0 | 2.0 | 0.00 | 0.00 | 0.00 | 70 | 1016.3 |
| 20260508182604 | 65 | 335 | 1.0 | 2.0 | 0.00 | 0.00 | 0.00 | 69 | 1016.2 |
| 20260508181604 | 66 | 336 | 2.0 | 3.0 | 0.00 | 0.00 | 0.00 | 66 | 1016.2 |
| 20260508181104 | 66 | 12 | 1.0 | 3.0 | 0.00 | 0.00 | 0.00 | 66 | 1016.1 |
| 20260508180604 | 66 | 341 | 1.0 | 5.0 | 0.00 | 0.00 | 0.00 | 64 | 1016.0 |
| 20260508180108 | 67 | 334 | 1.0 | 3.0 | 0.00 | 0.00 | 0.00 | 62 | 1016.0 |
| 20260508175604 | 67 | 334 | 1.0 | 2.0 | 0.00 | 0.00 | 0.00 | 61 | 1015.9 |
| 20260508173605 | 67 | 332 | 2.0 | 3.0 | 0.00 | 0.00 | 0.00 | 59 | 1015.8 |
| 20260508173104 | 68 | 343 | 2.0 | 5.0 | 0.00 | 0.00 | 0.00 | 59 | 1015.8 |
| 20260508172604 | 68 | 355 | 2.0 | 2.0 | 0.00 | 0.00 | 0.00 | 60 | 1015.8 |
| 20260508172105 | 68 | 14 | 2.0 | 5.0 | 0.00 | 0.00 | 0.00 | 61 | 1015.8 |
| 20260508171604 | 68 | 7 | 2.0 | 3.0 | 0.00 | 0.00 | 0.00 | 61 | 1015.8 |
| 20260508171104 | 69 | 2 | 2.0 | 3.0 | 0.00 | 0.00 | 0.00 | 60 | 1015.8 |
| 20260508170604 | 69 | 339 | 2.0 | 5.0 | 0.00 | 0.00 | 0.00 | 62 | 1015.8 |
| 20260508170104 | 69 | 349 | 2.0 | 5.0 | 0.00 | 0.00 | 0.00 | 61 | 1015.8 |
| 20260508165605 | 69 | 14 | 2.0 | 3.0 | 0.00 | 0.00 | 0.00 | 60 | 1015.8 |
| 20260508165104 | 69 | 344 | 2.0 | 3.0 | 0.00 | 0.00 | 0.00 | 61 | 1015.8 |
| 20260508163104 | 70 | 313 | 2.0 | 2.0 | 0.00 | 0.00 | 0.00 | 59 | 1015.7 |
| 20260508162104 | 71 | 344 | 2.0 | 3.0 | 0.00 | 0.00 | 0.00 | 57 | 1015.7 |
| 20260508161103 | 71 | 344 | 2.0 | 5.0 | 0.00 | 0.00 | 0.00 | 57 | 1015.7 |
| 20260508160104 | 71 | 315 | 2.0 | 6.0 | 0.00 | 0.00 | 0.00 | 58 | 1015.7 |
| 20260508155604 | 71 | 314 | 2.0 | 7.0 | 0.00 | 0.00 | 0.00 | 59 | 1015.8 |
| 20260508155104 | 70 | 338 | 2.0 | 7.0 | 0.00 | 0.00 | 0.00 | 60 | 1015.8 |
| 20260508154604 | 70 | 26 | 2.0 | 3.0 | 0.00 | 0.00 | 0.00 | 62 | 1015.8 |
| 20260508154104 | 70 | 9 | 2.0 | 6.0 | 0.00 | 0.00 | 0.00 | 62 | 1015.8 |
| 20260508153605 | 70 | 319 | 2.0 | 5.0 | 0.00 | 0.00 | 0.00 | 62 | 1015.8 |
| 20260508153104 | 70 | 325 | 2.0 | 6.0 | 0.00 | 0.00 | 0.00 | 61 | 1015.8 |
| 20260508152604 | 70 | 38 | 2.0 | 3.0 | 0.00 | 0.00 | 0.00 | 63 | 1015.8 |
| 20260508152104 | 70 | 314 | 2.0 | 5.0 | 0.00 | 0.00 | 0.00 | 63 | 1015.8 |
| 20260508151606 | 70 | 315 | 2.0 | 6.0 | 0.00 | 0.00 | 0.00 | 63 | 1015.8 |
| 20260508151104 | 70 | 339 | 2.0 | 6.0 | 0.00 | 0.00 | 0.00 | 62 | 1015.9 |
| 20260508150604 | 71 | 324 | 2.0 | 7.0 | 0.00 | 0.00 | 0.00 | 61 | 1015.9 |
| 20260508150104 | 70 | 306 | 2.0 | 5.0 | 0.00 | 0.00 | 0.00 | 63 | 1015.9 |
| 20260508144604 | 70 | 318 | 2.0 | 5.0 | 0.00 | 0.00 | 0.00 | 64 | 1016.0 |
| 20260508144104 | 70 | 328 | 2.0 | 6.0 | 0.00 | 0.00 | 0.00 | 64 | 1016.1 |
| 20260508143607 | 70 | 313 | 1.0 | 5.0 | 0.00 | 0.00 | 0.00 | 64 | 1016.1 |
| 20260508143105 | 70 | 301 | 1.0 | 3.0 | 0.00 | 0.00 | 0.00 | 63 | 1016.1 |
| 20260508142604 | 69 | 311 | 1.0 | 2.0 | 0.00 | 0.00 | 0.00 | 65 | 1016.2 |
| 20260508141604 | 70 | 133 | 2.0 | 3.0 | 0.00 | 0.00 | 0.00 | 66 | 1016.3 |
| 20260508141104 | 70 | 133 | 2.0 | 2.0 | 0.00 | 0.00 | 0.00 | 64 | 1016.4 |
| 20260508140611 | 70 | 133 | 2.0 | 5.0 | 0.00 | 0.00 | 0.00 | 63 | 1016.4 |
| 20260508140104 | 70 | 80 | 1.0 | 5.0 | 0.00 | 0.00 | 0.00 | 66 | 1016.4 |
| 20260508135619 | 69 | 349 | 1.0 | 5.0 | 0.00 | 0.00 | 0.00 | 67 | 1016.5 |
| 20260508135104 | 69 | 335 | 2.0 | 5.0 | 0.00 | 0.00 | 0.00 | 66 | 1016.5 |
| 20260508134604 | 69 | 7 | 2.0 | 3.0 | 0.00 | 0.00 | 0.00 | 66 | 1016.5 |
| 20260508134109 | 69 | 62 | 2.0 | 3.0 | 0.00 | 0.00 | 0.00 | 66 | 1016.6 |
| 20260508133604 | 69 | 12 | 2.0 | 5.0 | 0.00 | 0.00 | 0.00 | 66 | 1016.6 |
| 20260508133107 | 69 | 70 | 2.0 | 5.0 | 0.00 | 0.00 | 0.00 | 65 | 1016.6 |
| 20260508131106 | 69 | 54 | 2.0 | 5.0 | 0.00 | 0.00 | 0.00 | 68 | 1016.8 |